#timestamp,LO_Frequency,Hit,StdDev 
1563436815.9,286047000.3,N
1563436835.7,286046999.7,N
1563436855.6,286046999.8,N
1563436875.4,286046999.8,N
1563436895.2,286047002.2,N
1563436915.1,286046999.7,N
1563436916.0,286046999.7,N
1563436935.8,286046999.9,N
1563436955.7,286046999.7,N
1563436975.5,286047000.6,N
1563436995.3,286047000.7,N
1563437015.2,286047000.0,N
1563437035.0,286047000.0,N
1563437035.9,286047000.0,N
1563437055.8,286047002.3,N
1563437075.6,286047001.8,N
1563437095.4,286047002.5,N
1563437115.3,286047004.3,N
1563437135.1,286047003.6,N
1563437155.8,286047001.7,N
1563437175.7,286047002.5,N
1563437195.5,286047003.6,N
1563437215.4,286047005.5,Y
1563437235.2,286047005.5,P
1563437255.0,286047005.9,N
1563437255.9,286047005.9,N
1563437275.8,286047005.4,N
1563437295.6,286047005.1,N
1563437315.5,286047007.5,Y
1563437335.3,286047002.7,P
1563437355.1,286047002.8,N
1563437375.9,286046998.1,N
1563437395.7,286047001.2,N
1563437415.5,286046998.8,N
1563437435.4,286046999.3,N
1563437455.2,286046999.3,N
1563437475.1,286046999.1,N
1563437476.0,286046999.1,N
1563437495.8,286046999.5,N
1563437515.6,286046999.6,N
1563437535.5,286046999.4,N
1563437555.3,286046996.7,N
1563437575.2,286046997.1,N
1563437595.9,286046997.3,N
1563437615.7,286046997.5,N
1563437635.6,286046997.6,N
1563437655.4,286046995.4,N
1563437675.2,286046998.0,N
1563437695.1,286046994.9,N
1563437696.0,286046994.9,N
1563437715.8,286046997.2,N
1563437735.7,286046997.8,N
1563437755.5,286046998.0,N
1563437775.3,286046995.5,N
1563437795.2,286046995.1,N
1563437815.0,286046995.2,N
1563437815.9,286046995.2,N
1563437835.8,286046997.8,N
1563437855.6,286046995.1,N
1563437875.4,286046996.2,N
1563437895.3,286046996.0,N
1563437915.1,286046993.5,Y
1563437935.8,286046997.8,P
1563437955.7,286046998.0,P
1563437975.5,286046996.8,P
1563437995.4,286046999.5,N
1563438015.2,286046997.0,Y
1563438035.0,286047000.5,P
1563438035.9,286047000.5,N
1563438055.8,286047001.2,N
1563438075.6,286047000.9,N
1563438095.5,286047000.5,N
1563438115.3,286047001.0,N
1563438135.1,286046998.2,N
1563438155.9,286047000.6,N
1563438175.7,286047000.6,N
1563438195.6,286046996.6,Y
1563438215.4,286046995.6,P
1563438235.2,286046995.9,N
1563438255.1,286046993.8,N
1563438256.0,286046993.8,N
1563438275.8,286046994.0,N
1563438295.7,286046993.7,N
1563438315.5,286046993.4,Y
1563438335.3,286047000.2,P
1563438355.2,286047000.0,N
1563438375.0,286047000.9,N
1563438375.9,286047000.9,N
1563438395.7,286046998.8,N
1563438415.6,286046998.4,N
1563438435.4,286047000.5,N
1563438455.3,286046999.5,N
1563438475.1,286046996.9,N
1563438495.8,286046999.3,N
1563438515.7,286046998.1,N
1563438535.5,286046998.7,N
1563438555.4,286046999.6,N
1563438575.2,286046999.0,N
1563438595.0,286046999.5,N
1563438595.9,286046999.5,N
1563438615.8,286046996.5,N
1563438635.6,286046999.4,N
1563438655.4,286047000.8,N
1563438675.3,286047001.1,N
1563438695.1,286046998.6,N
1563438715.9,286046998.3,N
1563438735.7,286046999.1,N
1563438755.5,286046998.4,N
1563438775.4,286046998.6,N
1563438795.2,286047000.4,N
1563438815.1,286047002.8,N
1563438816.0,286047002.8,N
1563438835.8,286047001.4,N
1563438855.6,286047004.4,N
1563438875.5,286047001.3,N
1563438895.3,286047001.8,N
1563438915.1,286047002.2,N
1563438935.9,286047003.9,N
1563438955.7,286047001.3,N
1563438975.6,286047001.7,N
1563438995.4,286047001.4,N
1563439015.2,286047003.8,N
1563439035.1,286047001.4,N
1563439036.0,286047001.4,N
1563439055.8,286047003.6,N
1563439075.7,286046999.8,N
1563439095.5,286046999.8,N
1563439115.3,286047000.6,N
1563439135.2,286047000.3,N
1563439155.0,286047002.5,N
1563439155.9,286047002.5,N
1563439175.8,286047002.1,N
1563439195.6,286047004.2,N
1563439215.4,286047003.5,N
1563439235.3,286047003.2,N
1563439255.1,286047001.4,N
1563439275.8,286047001.7,N
1563439295.7,286047001.9,N
1563439315.5,286047002.7,N
1563439335.4,286047002.5,N
1563439355.2,286047002.6,N
1563439375.0,286047001.0,N
1563439375.9,286047001.0,N
1563439395.8,286047001.6,N
1563439415.6,286047002.3,N
1563439435.4,286047002.7,N
1563439455.3,286047000.6,N
1563439475.1,286046998.3,N
1563439495.9,286046998.1,N
1563439515.7,286047002.2,N
1563439535.5,286047002.0,N
1563439555.4,286047001.4,N
1563439575.2,286047003.4,N
1563439595.1,286047003.5,N
1563439596.0,286047003.5,N
1563439615.8,286047005.9,Y
1563439635.6,286047003.9,P
1563439655.5,286047004.0,P
1563439675.3,286047001.6,N
1563439695.1,286047001.9,N
1563439715.9,286046999.8,N
1563439735.7,286047002.0,N
1563439755.6,286047000.0,N
1563439775.4,286047000.7,N
1563439795.2,286047000.2,N
1563439815.1,286046999.9,N
1563439816.0,286046999.9,N
1563439835.8,286047002.1,N
1563439855.7,286047002.4,N
1563439875.5,286047002.7,N
1563439895.3,286047002.7,N
1563439915.2,286047000.3,N
1563439935.0,286047000.0,N
1563439935.9,286047000.0,N
1563439955.7,286047000.7,N
1563439975.6,286046999.8,N
1563439995.4,286047002.6,N
1563440015.3,286047000.8,N
1563440035.1,286047000.2,N
1563440036.0,286047000.2,N
1563440055.8,286047002.8,N
1563440075.7,286047000.5,N
1563440095.5,286047002.7,N
1563440115.4,286047000.9,N
1563440135.2,286047000.4,N
1563440155.0,286047000.6,N
1563440155.9,286047000.6,N
1563440175.8,286047002.4,N
1563440195.6,286047000.8,N
1563440215.4,286047000.6,N
1563440235.3,286047001.0,N
1563440255.1,286046998.3,N
1563440275.9,286047002.6,N
1563440295.7,286047002.2,N
1563440315.5,286047000.0,N
1563440335.4,286047000.5,N
1563440355.2,286047000.2,N
1563440375.1,286047000.2,N
1563440376.0,286047000.2,N
1563440395.8,286047002.5,N
